User: anonymous   Login
Location: Coffee Creek Observatory
(38.8077°N, 94.7179°W)
Time: 10:25:18
(UTC-05:00)
Language:

Lacrosse 4 Rocket - Orbit

View from above orbital plane
View from above orbital plane
View from above satellite
View from above satellite

Ground track
Ground track

The orbit data is extracted from the following two-line orbital elements,

1 26474U 00047B   18145.86767202  .00000041  00000-0  14644-4 0  9999
2 26474  67.9941 349.5585 0060146 303.6653  55.8761 14.95688132966621
Epoch (UTC): 25 May 2018 20:49:26
Eccentricity: 0.0060146
inclination: 67.9941°
perigee height: 538 km
apogee height: 622 km
right ascension of ascending node: 349.5585°
argument of perigee: 303.6653°
revolutions per day: 14.95688132
mean anomaly at epoch: 55.8761°
orbit number at epoch: 96662

The dashed part of the orbit path shows where the satellite is in the earth's shadow,  

DLR